Regional Weather Roundup
Issued by NWS

Home | Current Version | Previous Version | Graphics & Text | Print | Product List | Glossary On
Versions: 1 2 3 4 5 6 7 8 9 10 11 12 13 14 15 16 17 18 19 20 21 22 23 24 25 26 27 28 29 30 31 32 33 34 35 36 37 38 39 40 41 42 43 44 45 46 47 48 49 50
000
ASUS43 KFSD 221702
RWRSD

WEATHER ROUNDUP FOR SOUTH DAKOTA
NATIONAL WEATHER SERVICE SIOUX FALLS SD
1200 PM CDT TUE APR 22 2014

NOTE: "FAIR" INDICATES FEW OR NO CLOUDS BELOW 12,000 FEET WITH NO
SIGNIFICANT WEATHER AND/OR OBSTRUCTIONS TO VISIBILITY.


SDZ001>005-009-010-012>017-221800-
NORTHWEST AND NORTH CENTRAL SOUTH DAKOTA

CITY           SKY/WX    TMP DP  RH WIND       PRES   REMARKS
FAITH            N/A     63  31  30 SE21G31   29.84F
MOBRIDGE       MOSUNNY   66  27  23 SE24G32   29.93F
$$

SDZ012>016-024>037-041>051-057-063-072>074-221800-
SOUTHWEST AND SOUTH CENTRAL SOUTH DAKOTA

CITY           SKY/WX    TMP DP  RH WIND       PRES   REMARKS
RAPID CTY ARPT MOSUNNY   63  37  38 S16       29.81F
PIERRE         SUNNY     65  31  28 SE26G36   29.93F
CUSTER         CLOUDY    64  30  27 VRB5      29.88F
ELLSWORTH AFB  PTSUNNY   63  38  39 S12       29.80F
PHILIP         SUNNY     71  34  25 S21G31    29.82F
PINE RIDGE     PTSUNNY   68  40  35 S23G33    29.84F
WINNER         FAIR      67  29  24 SE22G31   29.97F
$$

SDZ004>011-016>023-039-040-221800-
NORTHEAST SOUTH DAKOTA

CITY           SKY/WX    TMP DP  RH WIND       PRES   REMARKS
ABERDEEN       SUNNY     60  30  32 SE16      30.06F
WATERTOWN      MOSUNNY   57  31  37 VRB3      30.10F
SISSETON         N/A     60  31  33 E3        30.10F
$$

SDZ017-020-022-023-036>040-048>070-221800-
SOUTHEAST SOUTH DAKOTA

CITY           SKY/WX    TMP DP  RH WIND       PRES   REMARKS
SIOUX FALLS    MOSUNNY   58  31  35 SE12      30.12F
HURON          SUNNY     62  30  29 MISG      30.07F
CHAMBERLAIN      N/A     63  28  26 SE23G32   30.01F
MITCHELL       MOSUNNY   61  32  33 S17G25    30.09F
YANKTON        SUNNY     61  30  31 SE15G21   30.13S
$$

ABBREVIATIONS USED IN REMARKS
   TC - TEMPERATURE IN CELSIUS
  WCI - WIND CHILL INDEX
   HX - HEAT INDEX
  VSB - VISIBILITY




USA.gov is the U.S. government's official web portal to all federal, state and local government web resources and services.